Temperature
17 19 17 16 15 17 17 17 15 11 9 9 8 6 6 5 5 5 5 4 4 3 2 1 0 -0 -1 -1 -1 -1 -1 -1 -1 -1 -2 -2 -2 -2 -2 -2 -1 -1 -1 -1
19 16 14 14 14 16 17 16 13 9 8 8 7 6 6 5 5 4 4 4 3 3 2 1 -1 -1 -2 -3 -3 -2 -2 -3 -3 -4 -4 -4 -4 -4 -4 -4 -3 -2 -2 -3
17 15 14 15 16 16 16 16 14 11 8 8 7 7 6 6 5 4 4 4 3 2 1 0 -1 -2 -3 -4 -4 -4 -4 -4 -5 -5 -5 -5 -5 -5 -5 -5 -5 -4 -4 -4
15 14 14 15 14 15 16 13 13 11 10 11 9 12 8 6 6 5 5 4 3 2 1 -1 -2 -3 -4 -5 -5 -5 -5 -6 -6 -6 -7 -7 -7 -7 -7 -7 -7 -6 -6 -6
14 14 14 14 13 13 14 11 12 11 12 12 10 10 11 6 6 6 5 4 3 1 -0 -1 -3 -4 -5 -5 -6 -6 -6 -7 -7 -7 -8 -8 -8 -8 -8 -8 -7 -7 -6 -6
14 12 12 13 12 11 11 12 11 11 12 13 12 11 12 7 6 6 5 4 3 1 -0 -2 -3 -4 -5 -6 -7 -7 -7 -8 -8 -8 -8 -9 -9 -9 -8 -8 -8 -8 -8 -7
14 13 12 11 14 14 14 15 16 16 15 15 10 10 11 6 5 4 4 3 2 1 -1 -3 -4 -5 -6 -7 -7 -8 -8 -9 -9 -9 -9 -9 -9 -9 -9 -9 -9 -9 -9 -8
16 16 12 12 12 13 13 15 16 15 16 16 11 11 8 6 4 4 3 2 2 0 -2 -3 -4 -6 -7 -7 -8 -9 -9 -9 -10 -10 -10 -10 -10 -10 -10 -10 -10 -10 -10 -9
15 15 12 11 10 12 13 13 12 13 13 12 13 10 5 5 5 4 3 2 1 -1 -3 -4 -5 -6 -7 -8 -8 -9 -10 -10 -10 -11 -11 -11 -11 -11 -11 -11 -11 -11 -10 -10
12 14 12 11 11 11 11 12 12 13 13 14 14 12 10 5 5 4 3 2 0 -2 -3 -4 -5 -7 -8 -8 -9 -9 -10 -10 -11 -11 -11 -12 -12 -12 -12 -12 -12 -11 -11 -11
11 13 13 12 12 12 11 11 11 12 12 12 12 12 7 5 4 4 3 1 -1 -3 -4 -5 -6 -7 -8 -9 -9 -10 -10 -11 -11 -12 -12 -12 -12 -12 -12 -12 -12 -12 -12 -11
9 12 14 12 9 8 10 10 11 12 12 11 11 10 5 4 3 3 2 0 -2 -3 -4 -5 -6 -7 -8 -9 -10 -10 -11 -11 -11 -12 -12 -12 -12 -13 -13 -13 -13 -13 -13 -12
9 11 15 15 11 9 9 9 9 9 9 9 9 10 4 4 4 3 1 -1 -2 -3 -5 -6 -7 -8 -9 -10 -10 -11 -11 -11 -12 -12 -12 -13 -13 -13 -13 -13 -13 -13 -13 -13
8 10 13 15 13 10 9 8 8 8 9 10 9 9 6 5 4 2 1 -2 -3 -4 -5 -6 -7 -8 -9 -10 -11 -11 -11 -12 -12 -12 -13 -13 -13 -14 -14 -14 -14 -13 -13 -13
8 10 10 9 7 7 7 8 7 7 8 8 8 6 6 4 3 2 -0 -2 -3 -5 -6 -7 -8 -9 -10 -10 -11 -11 -11 -11 -12 -12 -12 -13 -13 -13 -14 -14 -14 -14 -13 -13
8 9 8 9 6 6 6 7 6 6 6 6 6 6 5 3 2 2 -1 -3 -5 -6 -7 -8 -9 -9 -10 -10 -10 -10 -11 -11 -12 -12 -12 -13 -13 -13 -14 -14 -14 -14 -14 -13
8 8 9 11 7 7 9 8 6 6 6 6 5 5 4 3 2 0 -3 -5 -6 -7 -7 -8 -9 -10 -10 -10 -10 -10 -10 -11 -11 -12 -12 -12 -13 -13 -14 -14 -14 -14 -14 -14
7 8 8 8 9 9 9 5 6 6 5 5 4 4 3 2 -0 -3 -5 -6 -7 -8 -8 -9 -9 -9 -9 -9 -9 -10 -10 -10 -11 -11 -12 -12 -13 -14 -14 -14 -14 -14 -14 -14
5 7 7 7 10 11 7 5 4 5 5 4 4 3 2 0 -0 -2 -5 -7 -8 -8 -8 -8 -8 -9 -9 -9 -9 -10 -10 -10 -11 -11 -12 -13 -14 -14 -14 -14 -14 -14 -15 -14
4 5 7 6 8 10 9 5 3 4 5 3 2 2 1 -1 1 -1 -6 -7 -7 -7 -7 -7 -8 -9 -9 -9 -10 -10 -10 -10 -11 -12 -12 -13 -14 -14 -15 -15 -15 -15 -15 -14
5 5 5 6 7 10 6 3 3 5 6 2 2 1 -1 -2 -3 -5 -6 -7 -7 -7 -7 -7 -8 -8 -9 -9 -9 -9 -10 -11 -11 -11 -12 -13 -14 -14 -15 -15 -15 -15 -15 -14
8 7 7 6 6 8 3 3 5 5 2 1 0 -1 -2 -3 -5 -6 -6 -6 -6 -6 -7 -7 -8 -8 -9 -9 -9 -10 -10 -11 -11 -11 -12 -13 -13 -14 -14 -14 -15 -15 -14 -14
7 8 9 8 9 4 3 3 3 2 1 0 -0 -1 -3 -4 -5 -6 -6 -6 -6 -7 -7 -7 -8 -8 -8 -9 -10 -10 -10 -10 -11 -11 -12 -13 -14 -14 -14 -14 -14 -14 -14 -14
6 3 5 5 5 3 2 1 2 2 1 0 -1 -2 -3 -4 -5 -5 -6 -6 -6 -7 -7 -7 -8 -8 -8 -9 -9 -10 -10 -10 -11 -12 -13 -14 -14 -14 -14 -14 -14 -14 -14 -14
8 3 4 5 4 1 1 1 1 1 1 -0 -1 -3 -3 -4 -5 -5 -6 -6 -6 -7 -7 -7 -8 -8 -8 -9 -9 -9 -10 -10 -11 -12 -13 -14 -14 -13 -14 -14 -14 -14 -14 -14
4 4 5 7 5 3 2 1 2 1 1 -1 -2 -3 -4 -4 -5 -5 -6 -6 -6 -6 -7 -7 -7 -8 -8 -9 -9 -9 -10 -10 -11 -12 -13 -13 -13 -13 -14 -14 -14 -14 -14 -14
Wind_Speed
6 8 8 7 5 3 3 5 6 4 4 5 11 14 10 6 5 7 9 11 13 14 14 14 16 18 19 20 20 21 21 21 19 16 16 16 15 14 14 16 20 20 20 21
6 9 7 4 2 4 6 7 6 6 5 5 10 9 8 5 4 6 9 11 13 15 15 15 16 17 18 18 19 19 20 20 18 16 15 14 15 13 14 17 19 20 21 21
9 5 4 5 6 5 3 0 4 7 5 6 8 9 11 7 3 3 7 10 13 14 15 15 15 17 17 18 19 18 20 19 18 20 15 14 13 13 13 15 14 20 22 21
8 5 4 6 7 3 2 1 4 10 8 5 9 5 12 11 5 1 7 11 14 15 14 14 15 17 18 17 17 18 19 18 18 19 16 18 14 15 17 15 15 20 21 21
5 4 5 5 4 4 2 1 4 9 7 3 8 7 5 10 7 2 7 12 14 14 14 14 14 16 16 16 16 16 18 17 18 18 17 17 16 15 15 16 18 18 18 20
5 3 3 4 2 1 1 3 4 5 5 6 4 7 3 6 4 2 8 12 14 15 14 13 13 15 15 16 15 16 17 17 18 18 18 18 19 19 19 19 18 17 15 16
3 3 3 3 2 0 2 4 4 3 4 3 3 5 2 8 4 4 9 13 15 14 13 13 14 16 16 17 16 16 17 18 18 19 19 19 19 19 19 19 18 18 16 16
0 2 4 5 4 4 5 6 6 7 8 6 3 4 3 7 3 4 8 12 14 14 13 13 14 15 16 17 16 17 17 18 18 19 19 18 19 15 15 18 18 17 16 17
3 0 2 3 3 3 2 2 4 5 6 7 5 2 4 5 1 6 10 13 15 13 13 13 14 14 16 16 16 17 18 18 19 19 19 18 18 18 18 19 18 16 16 18
3 2 1 2 2 4 3 1 2 4 7 8 9 5 2 7 2 8 12 15 15 13 12 13 13 14 15 15 15 16 17 18 18 19 18 16 18 18 18 17 19 19 20 21
2 3 1 1 0 2 0 1 1 2 4 6 9 5 6 5 3 9 13 14 13 12 12 13 14 14 15 15 16 16 17 18 18 18 18 18 17 17 18 17 18 19 19 20
2 2 3 1 1 1 1 1 2 4 5 5 8 3 9 4 5 9 13 13 11 11 12 14 14 14 15 16 16 16 17 17 18 18 18 18 17 18 18 18 19 20 20 20
0 2 4 2 3 3 2 2 1 2 4 6 6 3 6 1 7 10 13 13 11 12 14 14 14 14 15 15 16 16 16 17 17 17 17 17 18 18 19 19 19 19 19 19
1 2 5 6 5 0 3 5 5 5 5 6 8 9 2 6 10 13 14 11 11 13 14 14 14 14 15 15 15 16 16 16 17 17 17 17 18 18 19 19 19 19 19 19
1 3 4 6 3 4 7 8 8 10 9 8 8 7 10 6 10 12 12 10 12 14 15 14 15 15 15 15 15 16 16 16 16 17 17 17 17 18 18 18 18 19 19 19
0 2 3 4 3 5 8 10 10 10 9 10 10 10 2 6 9 13 11 9 12 14 14 15 15 15 16 16 16 16 16 16 16 16 16 17 17 18 18 18 18 18 18 18
2 1 3 4 3 7 8 7 10 6 7 6 6 5 4 9 12 12 7 7 12 14 14 14 15 15 15 16 15 16 16 16 16 16 16 16 17 18 18 18 18 18 18 18
2 2 2 5 5 5 2 2 5 6 6 6 7 5 5 8 9 4 2 8 12 12 13 13 13 14 15 15 14 15 15 15 15 16 16 16 17 18 18 18 18 17 16 16
0 2 2 2 5 8 2 5 5 5 5 5 4 3 5 7 8 2 1 6 9 10 11 12 12 14 15 14 14 15 15 15 15 16 17 17 18 18 18 18 18 17 16 16
2 2 3 2 4 6 1 6 6 3 4 6 4 3 5 6 8 5 3 6 8 9 10 11 13 14 13 14 14 15 16 16 16 17 18 19 18 18 18 18 18 16 15 15
3 3 4 6 6 7 5 8 7 3 1 8 3 1 2 2 3 4 4 6 7 9 11 12 13 12 12 13 14 15 16 16 18 19 19 19 18 18 17 16 16 16 14 14
7 6 6 5 6 6 11 10 7 1 6 6 4 2 2 0 1 2 5 7 8 10 11 12 12 13 13 12 13 16 17 18 18 19 19 18 18 16 15 16 15 15 14 13
8 7 4 9 5 3 10 6 4 7 6 5 5 4 4 2 1 2 4 6 8 10 11 11 12 14 13 13 14 16 17 18 18 18 18 18 18 16 16 15 15 13 12 11
6 4 5 8 8 6 9 6 7 6 6 7 7 7 5 4 2 2 3 6 8 9 10 11 12 13 14 15 15 15 17 17 18 18 18 17 17 16 16 14 12 12 12 12
6 9 7 8 4 5 9 10 10 8 10 10 9 7 6 5 3 1 3 5 7 8 9 10 11 12 14 15 16 16 16 17 18 18 17 17 16 16 15 14 12 13 11 13
9 10 9 6 7 8 8 14 13 12 11 11 10 8 6 4 3 1 2 4 6 8 9 10 11 13 14 15 16 16 17 17 18 17 17 15 14 14 14 13 13 15 15 17
Wind_Direction
38 62 48 19 1 25 108 134 122 99 107 110 137 145 149 140 95 60 39 26 18 14 10 9 7 4 0 357 356 355 353 351 351 349 344 341 339 336 336 337 336 335 335 335
87 54 23 12 58 129 129 130 124 118 120 134 154 163 165 158 94 48 27 17 9 2 1 2 1 360 357 355 354 352 351 348 349 347 340 336 332 332 333 334 332 333 334 333
83 50 21 54 80 126 129 211 188 168 139 153 168 199 201 184 154 58 28 15 9 2 355 355 355 356 355 355 354 350 348 345 347 345 341 339 337 336 339 337 333 332 330 329
74 50 45 63 52 359 176 42 197 173 181 199 207 264 190 192 193 31 17 13 6 360 354 352 353 354 353 352 351 348 346 345 346 345 344 343 341 340 336 333 328 328 328 327
84 45 38 46 23 352 357 3 202 198 218 230 213 258 171 179 216 303 5 4 0 357 352 351 353 351 349 349 349 347 345 345 346 346 345 342 340 338 333 333 330 331 328 327
91 68 26 358 325 329 300 146 131 173 215 255 213 229 223 177 202 345 358 356 354 354 350 347 348 349 348 349 349 347 345 346 347 346 345 343 340 338 335 336 334 333 329 327
118 87 34 343 298 113 351 296 290 275 252 273 126 237 302 130 106 17 350 347 348 349 346 344 347 348 349 348 348 346 345 345 347 346 345 341 339 337 334 335 332 331 329 328
171 138 30 16 13 350 9 351 352 315 307 312 217 260 118 145 107 2 346 344 345 347 347 346 347 347 347 346 346 345 344 344 345 345 343 340 339 336 332 331 329 327 326 325
359 50 81 29 17 332 337 22 352 284 283 278 258 187 159 179 243 344 347 348 350 348 346 345 346 347 347 346 345 344 342 342 343 343 341 339 339 336 332 330 328 327 326 324
341 294 71 1 208 65 31 106 257 297 315 307 299 272 236 174 302 344 348 349 349 348 346 345 347 348 347 345 343 343 343 341 341 341 340 337 337 336 333 330 330 329 327 326
299 290 199 164 180 336 180 157 209 261 278 294 306 330 106 123 20 348 348 350 349 348 347 346 347 347 346 344 344 343 343 342 342 341 339 338 338 336 335 333 331 330 328 328
17 295 277 187 87 305 265 236 234 288 286 256 283 306 125 97 10 352 349 352 350 348 347 346 345 344 345 344 343 342 342 341 341 339 338 337 338 338 337 336 334 332 330 329
146 285 293 227 186 175 191 169 201 268 273 254 263 305 135 347 347 355 353 352 349 348 346 346 345 345 344 342 340 339 339 340 338 338 337 337 338 339 338 336 335 334 333 331
159 257 263 291 319 130 229 216 211 230 248 260 254 290 315 337 346 349 351 349 346 348 346 346 344 343 341 339 338 337 337 338 337 337 336 337 336 336 335 334 334 335 335 334
243 263 262 272 274 264 264 251 231 229 246 265 291 294 320 345 342 342 346 347 346 346 345 344 342 340 338 337 335 335 334 335 334 333 334 333 332 331 332 333 334 335 336 335
220 262 286 271 234 276 269 251 239 240 244 254 276 294 19 337 333 338 347 348 344 343 343 342 339 336 335 334 332 330 328 328 327 327 326 327 329 329 329 330 333 335 335 334
169 241 286 280 307 299 273 236 209 212 216 235 270 307 329 324 336 338 346 346 341 341 341 338 334 331 330 329 328 323 322 322 321 321 321 322 324 325 326 327 329 333 333 332
171 194 259 296 310 281 90 81 190 216 236 231 256 283 310 324 329 343 13 344 340 340 335 331 328 326 324 324 321 317 316 315 316 317 317 319 321 321 321 324 326 329 330 329
292 206 219 270 283 274 170 178 178 210 254 205 215 267 318 329 305 199 65 345 337 335 330 325 324 322 321 321 319 317 314 315 315 315 317 319 320 319 320 321 322 326 328 325
87 188 222 214 265 273 105 147 149 181 249 171 191 286 320 327 327 4 26 340 339 335 331 327 324 322 322 323 322 316 317 320 321 321 320 320 321 321 320 319 321 324 323 324
186 185 208 221 246 274 132 145 157 222 22 152 186 250 304 310 316 346 346 345 343 336 333 330 325 323 323 324 321 318 321 325 324 322 321 322 324 323 320 320 322 321 322 323
201 194 208 198 229 262 147 157 194 159 124 154 158 145 152 209 345 352 352 346 341 336 334 332 327 323 324 323 322 322 326 327 326 324 325 327 327 325 322 324 324 324 324 323
218 214 218 207 231 89 169 174 147 137 150 152 148 139 141 149 99 11 349 340 337 335 332 330 325 320 325 329 330 328 328 329 327 327 329 328 328 327 328 329 329 329 327 324
219 204 229 251 252 204 185 160 148 145 137 132 131 135 138 136 111 23 344 338 337 334 332 328 325 326 328 332 335 332 330 330 329 329 330 330 330 330 332 333 333 332 329 327
217 180 217 246 232 169 185 176 155 133 128 128 125 128 132 132 120 50 336 335 332 327 327 326 324 322 326 333 335 335 335 335 333 332 333 333 334 335 338 340 339 339 339 340
195 191 196 223 187 173 177 168 153 145 146 143 138 135 126 126 129 84 328 324 320 319 321 322 323 327 331 333 335 338 340 338 336 336 338 338 339 343 345 344 344 347 349 351
Height
1575 1576 1582 1586 1585 1583 1581 1583 1592 1605 1612 1612 1614 1619 1623 1625 1624 1623 1621 1620 1618 1615 1613 1609 1604 1598 1592 1586 1579 1573 1566 1560 1553 1546 1539 1533 1528 1523 1519 1515 1511 1506 1501 1497
1576 1585 1591 1590 1588 1585 1584 1587 1597 1610 1614 1613 1616 1619 1622 1623 1624 1623 1622 1620 1618 1615 1611 1607 1603 1597 1591 1585 1578 1571 1565 1558 1552 1545 1539 1533 1527 1522 1517 1511 1507 1503 1498 1494
1583 1594 1593 1591 1587 1586 1587 1587 1591 1601 1613 1615 1616 1616 1619 1621 1623 1623 1621 1620 1617 1614 1610 1606 1601 1596 1590 1583 1576 1570 1563 1557 1551 1544 1537 1531 1525 1519 1514 1508 1503 1499 1495 1491
1590 1595 1594 1591 1592 1590 1588 1594 1594 1599 1601 1600 1609 1588 1604 1615 1619 1620 1619 1618 1616 1613 1609 1605 1600 1594 1588 1582 1575 1568 1562 1555 1549 1542 1535 1529 1523 1518 1512 1507 1501 1496 1492 1487
1594 1596 1595 1594 1596 1595 1593 1596 1595 1596 1594 1595 1601 1598 1589 1612 1614 1616 1617 1617 1615 1612 1608 1604 1599 1593 1587 1581 1573 1567 1560 1554 1547 1541 1534 1528 1523 1517 1511 1505 1499 1493 1488 1483
1597 1600 1599 1598 1598 1598 1597 1597 1597 1596 1592 1586 1585 1592 1580 1605 1610 1614 1616 1616 1614 1611 1607 1602 1598 1592 1586 1579 1572 1565 1558 1552 1546 1539 1533 1527 1521 1515 1509 1503 1496 1490 1484 1479
1596 1599 1600 1600 1596 1595 1594 1588 1580 1577 1576 1574 1593 1591 1589 1608 1614 1616 1616 1615 1612 1609 1605 1601 1596 1590 1583 1577 1570 1563 1557 1550 1544 1537 1531 1525 1519 1513 1507 1501 1494 1488 1482 1476
1590 1593 1601 1602 1601 1599 1597 1592 1590 1588 1574 1570 1589 1586 1599 1611 1615 1616 1615 1614 1611 1607 1603 1599 1594 1588 1582 1575 1568 1561 1555 1548 1542 1535 1529 1523 1517 1511 1505 1499 1493 1487 1481 1474
1593 1596 1603 1605 1604 1602 1597 1597 1601 1595 1588 1589 1576 1590 1608 1612 1613 1614 1613 1611 1609 1605 1601 1597 1593 1587 1580 1573 1566 1560 1553 1546 1540 1533 1526 1520 1514 1508 1502 1496 1491 1485 1478 1472
1604 1599 1602 1605 1605 1605 1604 1602 1600 1595 1590 1579 1566 1578 1587 1607 1610 1612 1611 1609 1607 1603 1600 1596 1591 1585 1578 1572 1565 1558 1552 1545 1538 1531 1524 1518 1512 1506 1499 1493 1487 1481 1475 1469
1607 1602 1600 1603 1601 1601 1603 1604 1601 1599 1596 1590 1579 1577 1601 1607 1611 1611 1610 1608 1605 1602 1598 1594 1589 1583 1577 1570 1563 1556 1549 1543 1536 1529 1522 1515 1509 1503 1497 1491 1485 1478 1472 1465
1610 1605 1596 1601 1608 1609 1606 1603 1602 1599 1593 1596 1591 1590 1607 1610 1610 1610 1608 1606 1604 1600 1597 1592 1587 1581 1575 1568 1561 1554 1548 1541 1534 1527 1520 1514 1508 1501 1495 1489 1482 1476 1469 1463
1610 1605 1592 1589 1602 1607 1606 1607 1607 1606 1604 1599 1596 1590 1608 1609 1608 1608 1607 1605 1602 1599 1595 1590 1585 1579 1573 1566 1559 1552 1546 1539 1532 1525 1519 1512 1506 1499 1493 1487 1480 1474 1467 1461
1611 1606 1599 1592 1592 1601 1604 1608 1609 1608 1601 1594 1593 1591 1602 1605 1607 1607 1605 1603 1601 1598 1593 1588 1583 1577 1571 1564 1558 1551 1544 1537 1530 1524 1517 1511 1504 1498 1492 1485 1479 1472 1466 1459
1610 1605 1604 1604 1609 1609 1606 1605 1607 1607 1601 1599 1593 1601 1602 1606 1607 1606 1604 1602 1599 1596 1591 1587 1581 1575 1569 1562 1556 1549 1542 1535 1529 1522 1516 1509 1503 1496 1490 1484 1477 1471 1464 1458
1610 1607 1607 1602 1609 1609 1606 1602 1604 1605 1605 1603 1602 1601 1605 1607 1606 1604 1603 1601 1598 1594 1590 1585 1579 1573 1567 1560 1553 1546 1540 1533 1527 1521 1514 1508 1501 1494 1488 1482 1476 1469 1463 1457
1609 1607 1604 1595 1605 1604 1590 1592 1598 1600 1601 1602 1600 1602 1605 1604 1604 1603 1601 1600 1597 1593 1588 1583 1577 1571 1565 1558 1552 1545 1538 1532 1526 1519 1513 1506 1499 1492 1486 1480 1475 1468 1462 1455
1610 1608 1608 1603 1598 1597 1588 1598 1597 1599 1600 1602 1602 1603 1604 1604 1603 1601 1600 1598 1595 1591 1586 1580 1575 1569 1563 1557 1550 1544 1537 1530 1524 1517 1510 1503 1496 1490 1484 1478 1473 1467 1461 1455
1612 1609 1609 1607 1592 1580 1592 1596 1598 1599 1597 1600 1601 1602 1603 1602 1600 1599 1598 1596 1593 1589 1584 1579 1573 1567 1561 1555 1549 1542 1535 1528 1521 1514 1507 1501 1494 1488 1482 1476 1471 1465 1459 1454
1613 1612 1608 1610 1599 1582 1583 1595 1596 1599 1594 1599 1600 1601 1601 1601 1597 1598 1597 1594 1591 1587 1582 1578 1572 1567 1560 1554 1547 1540 1534 1527 1520 1512 1505 1499 1492 1486 1479 1474 1469 1463 1458 1453
1610 1609 1608 1604 1598 1577 1589 1593 1597 1594 1590 1597 1598 1599 1599 1599 1600 1599 1595 1592 1589 1586 1581 1577 1572 1566 1559 1552 1546 1539 1532 1525 1519 1511 1503 1497 1490 1483 1477 1472 1467 1461 1457 1452
1595 1597 1598 1600 1597 1584 1588 1592 1592 1590 1593 1595 1596 1597 1597 1597 1596 1595 1593 1591 1588 1584 1580 1575 1570 1565 1559 1551 1545 1538 1532 1525 1517 1509 1502 1495 1488 1482 1476 1471 1465 1460 1456 1451
1591 1587 1583 1585 1579 1581 1584 1585 1588 1590 1592 1594 1594 1595 1595 1595 1594 1593 1591 1589 1586 1583 1579 1574 1569 1564 1558 1551 1544 1537 1531 1523 1515 1507 1500 1493 1487 1482 1476 1470 1465 1460 1455 1451
1586 1587 1586 1582 1576 1579 1581 1583 1586 1588 1590 1591 1592 1593 1592 1593 1592 1591 1590 1588 1585 1582 1578 1573 1568 1562 1556 1551 1545 1538 1530 1522 1514 1506 1499 1492 1486 1481 1475 1470 1465 1460 1455 1450
1575 1581 1580 1575 1574 1577 1579 1581 1583 1586 1588 1590 1590 1591 1591 1591 1590 1590 1589 1587 1584 1581 1577 1573 1567 1561 1556 1550 1545 1537 1530 1521 1513 1505 1499 1492 1487 1481 1475 1469 1465 1460 1455 1451
1569 1568 1568 1564 1565 1569 1572 1576 1581 1584 1586 1588 1588 1588 1589 1589 1589 1588 1587 1586 1583 1580 1577 1573 1567 1562 1556 1551 1544 1538 1530 1522 1513 1506 1499 1493 1487 1481 1475 1469 1464 1460 1456 1451